Вернуться в каталог

STARLINK-35264

АктивенСвязьVLEO
NORAD 65900·PAYLOAD·🇺🇸 United States

Запущен Oct 7, 2025 с Cape Canaveral Space Force Station

Loading…

Ближайшие Пролёты (ближайшие 24 часа)

TLE

СвежийSource: CelesTrak SupGP

Эпоха: Sep 14, 2026, 21:36 UTC

1 65900C 25224U   26257.90048611  .00019621  00000+0  57955-3 0  2575
2 65900  53.1585 207.9135 0001336 102.0538  42.9136 15.34389193    10

Отслеживайте STARLINK-35264 в реальном времени с AllMySat

Download on the App Store